Location: Bijele Vode
(45.2833°N, 16.2000°E)
Time: 23:02:22
(UTC+00:00)

Cosmos 2082 Rocket - Visible Passes

Search period start: 24 January 2021 00:00
Search period end: 03 February 2021 00:00
Orbit: 831 x 855 km, 71.0° (Epoch: 24 January)

Date Brightness Start Highest point End Pass type
(mag) Time Alt. Az. Time Alt. Az. Time Alt. Az.
24 Jan 3.7 16:56:00 10° N 16:59:42 17° NE 17:01:10 16° ENE visible
24 Jan 2.8 18:38:58 10° NNW 18:43:04 48° NNW 18:43:04 48° NNW visible
24 Jan 5.1 20:24:45 10° WNW 20:24:57 11° WNW 20:24:57 11° WNW visible
25 Jan 3.7 16:41:31 10° N 16:45:06 17° NE 16:47:48 12° ENE visible
25 Jan 2.1 18:24:25 10° NNW 18:29:42 72° NNE 18:29:42 72° NNE visible
25 Jan 4.9 20:10:05 10° WNW 20:11:37 14° WNW 20:11:37 14° WNW visible
26 Jan 3.7 16:27:02 10° N 16:30:30 16° NE 16:33:57 10° E visible
26 Jan 2.0 18:09:52 10° NNW 18:15:37 75° ENE 18:16:36 60° SE visible
26 Jan 4.6 19:55:25 10° WNW 19:58:32 17° W 19:58:32 17° W visible
27 Jan 2.1 17:55:19 10° NNW 18:01:04 72° ENE 18:03:50 31° SE visible
27 Jan 4.5 19:40:45 10° WNW 19:44:29 18° W 19:45:48 17° WSW visible
28 Jan 2.1 17:40:46 10° NNW 17:46:31 70° ENE 17:51:40 13° SE visible
28 Jan 4.6 19:26:06 10° WNW 19:29:58 19° W 19:33:41 10° SW visible
29 Jan 2.1 17:26:14 10° NNW 17:31:57 67° ENE 17:37:36 10° SE visible
29 Jan 4.6 19:11:28 10° NW 19:15:27 20° W 19:19:24 10° SW visible
30 Jan 2.2 17:11:41 10° NNW 17:17:23 64° ENE 17:23:01 10° SE visible
30 Jan 4.6 18:56:50 10° NW 19:00:55 21° W 19:04:59 10° SW visible
31 Jan 2.2 16:57:08 10° NNW 17:02:49 62° ENE 17:08:26 10° SE visible
31 Jan 4.6 18:42:12 10° NW 18:46:23 21° W 18:50:34 10° SSW visible
01 Feb 2.3 16:42:35 10° NNW 16:48:15 60° ENE 16:53:51 10° SE visible
01 Feb 4.6 18:27:34 10° NW 18:31:51 22° W 18:36:08 10° SSW visible
02 Feb 2.3 16:28:02 10° NNW 16:33:42 57° ENE 16:39:16 10° SE visible
02 Feb 4.6 18:12:56 10° NW 18:17:20 23° WSW 18:21:42 10° SSW visible
